Flag for Greece Weather past 2 weeks in Thessaloniki, Greece

Now
79 °F

Passing clouds.


Feels Like: 81 °F
Forecast: 71 / 91 °F
Wind: 14 mph from Northwest

Location: Thessaloniki Airport

Current Time: Aug 3, 2015 at 11:19:12 PM

Latest Report: Aug 3, 2015 at 10:50 PM


Visibility: N/A

Pressure: 29.98 "Hg

Humidity: 61%

Dew point: 64 °F

Location of ThessalonikiLocation

Historic Weather in Thessaloniki — Graph

°F

Thessaloniki temperature yesterday

Maximum temperature yesterday: 91 °F (at 2:20 PM)
Minimum temperature yesterday: 73 °F (at 4:20 AM)
Average temperature yesterday: 83 °F

Past Weeks' High & Low Weather Summary

 TemperatureHumidityPressure
High102 °F (Jul 30, 3:50 PM)83% (Jul 25, 3:20 AM)30.07 "Hg (Jul 25, 3:20 AM)
Low66 °F (Jul 24, 6:50 AM)18% (Jul 29, 3:50 PM)29.65 "Hg (Jul 27, 4:50 PM)
Average84 °F50%29.82 "Hg
* Reported Jul 19 9:20 PM — Aug 3 9:50 PM, Thessaloniki, Weather by CustomWeather, © 2015

Note: Actual official high and low records may vary slightly from our data, if they occured in-between our weather recording intervals... More about our weather records

Advertising

Thessaloniki weather history for previous 24 hours

 ConditionsComfort  
Time TempWeatherWind HumidityBarometerVisibility
9:50 PM
Mon, Aug 3
82 °FPartly cloudy.13 mph58%30.01 "HgN/A
9:20 PM82 °FBroken clouds.3 mph58%29.98 "HgN/A
8:50 PM84 °FPartly sunny.3 mph55%29.95 "HgN/A
8:20 PM84 °FPartly sunny.5 mph55%29.95 "HgN/A
7:50 PM84 °FScattered clouds.10 mph51%29.92 "HgN/A
7:20 PM86 °FScattered clouds.13 mph49%29.92 "HgN/A
6:50 PM88 °FScattered clouds.15 mph43%29.89 "HgN/A
6:20 PM90 °FPassing clouds.14 mph41%29.89 "HgN/A
5:50 PM91 °FPassing clouds.13 mph36%29.89 "HgN/A
5:20 PM91 °FPassing clouds.13 mph34%29.89 "HgN/A
4:50 PM91 °FPassing clouds.12 mph34%29.92 "HgN/A
4:20 PM93 °FPassing clouds.10 mph32%29.92 "HgN/A
3:50 PM93 °FPassing clouds.12 mph34%29.92 "HgN/A
3:20 PM91 °FPassing clouds.10 mph38%29.95 "HgN/A
2:50 PM91 °FPassing clouds.9 mph38%29.95 "HgN/A
2:20 PM91 °FPassing clouds.9 mph38%29.98 "HgN/A
1:50 PM90 °FPassing clouds.9 mph43%29.98 "HgN/A
12:50 PM88 °FPassing clouds.10 mph46%29.98 "HgN/A
12:20 PM88 °FPassing clouds.12 mph43%30.01 "HgN/A
11:50 AM88 °FPassing clouds.9 mph49%30.01 "HgN/A
11:20 AM86 °FScattered clouds.8 mph55%30.01 "HgN/A
10:50 AM86 °FScattered clouds.8 mph59%30.01 "HgN/A
10:20 AM84 °FPartly sunny.7 mph62%30.01 "HgN/A
9:50 AM84 °FPartly sunny.5 mph58%30.01 "HgN/A
9:20 AM82 °FPartly sunny.2 mph55%30.01 "HgN/A
8:50 AM82 °FPartly sunny.3 mph55%30.01 "HgN/A
8:20 AM79 °FPartly sunny.5 mph65%30.01 "HgN/A
7:50 AM77 °FPartly sunny.3 mph74%30.01 "HgN/A
7:20 AM75 °FPassing clouds.5 mph78%30.01 "HgN/A
6:50 AM73 °FPassing clouds.5 mph78%30.01 "HgN/A
6:20 AM73 °FPassing clouds.5 mph78%30.01 "HgN/A
5:50 AM73 °FClear.5 mph78%30.01 "Hg10 mi
5:20 AM73 °FClear.6 mph78%30.01 "Hg10 mi
4:50 AM73 °FClear.6 mph78%30.01 "Hg10 mi
4:20 AM73 °FClear.6 mph83%30.01 "Hg10 mi
3:50 AM75 °FClear.5 mph78%30.01 "Hg10 mi
3:20 AM75 °FClear.6 mph78%30.01 "Hg10 mi
2:50 AM75 °FClear.5 mph78%30.01 "Hg10 mi
2:20 AM77 °FClear.5 mph74%30.01 "Hg10 mi
1:50 AM75 °FPassing clouds.3 mph78%30.04 "HgN/A
1:20 AM77 °FPassing clouds.No wind74%30.04 "HgN/A
12:50 AM79 °FPassing clouds.2 mph70%30.04 "HgN/A
12:20 AM77 °FPassing clouds.2 mph74%30.04 "HgN/A
11:50 PM
Sun, Aug 2
79 °FPassing clouds.2 mph70%30.04 "HgN/A
11:20 PM79 °FPassing clouds.2 mph70%30.04 "HgN/A
Weather by CustomWeather, © 2015

See weather overviewHow to use our weather pages